DELTA 1 DEB, 42652

Orbit data source: Space-Track

DELTA 1 DEB, 42652 is space debris in SSO originally from a launch on Thu, 12 Jun 1975 UTC launched from the Air Force Western Test Range (AFWTR). Debris objects in space refer to the collection of defunct objects orbiting the Earth. Examples of debris include non-operational satellites, rocket bodies, and fragments generated from explosions, collisions, or faulty payload assembly.

Loading next visibility...
Identifier
42652, 1975-052MM
Orbit
SSO
Country
Flag of USUS
Related business
Manufacturer
Unknown
Mission
Spacecraft
Bus & Motor
Unknown
Mass
Unknown
Launch date (UTC)
1975-06-12 (51 years ago)
Launch vehicle
Unknown
Launch site
Air Force Western Test Range (AFWTR)
Object type
Payload
Rocket body
Debris
Shape & HBR
Unknown shape, 0.1 m
Radar Cross Section
Small (<0.1 m²)

Expand to show TLE details & history
Last TLE update: 1 day ago

TLE from 1 day ago
0 DELTA 1 DEB
1 42652U 75052MM  26033.67529331  .00000294  00000-0  67600-3 0  9995
2 42652  99.7560 186.7127 0072220 294.6377  87.3899 13.33118172593337
Epoch: 2026-02-02T16:12Z
TLE epoch observation values (Epoch: 2026-02-02T16:12:25.341Z)
Latitude
22.52253°
Longitude
166.67224°
Altitude
1,135.546 km
Speed
7.288 km/s
True Right ascension
12h 10m 34s
True Declination
22° 24' 26"
Sunlit
Object was in full shadow at epoch
Visualization orbit readout
Latitude
Unknown
Longitude
Unknown
Altitude
Unknown
Speed
Unknown
Apparent Right ascension
Unknown
Apparent Declination
Unknown
Sunlit
N/A
Visualization observer readout
Local Sidereal Time
02:03:55
Azimuth
Unknown
Elevation
Unknown
Doppler factor
Unknown
Orbital elements
Apogee altitude
1,186.592 km
Perigee altitude
1,078.111 km
Semi-major axis
7,510.488 km
Eccentricity
0.00722
Inclination
99.756°
RAAN
186.7127°
Arg. of periapsis
294.6377°
True anomaly
88.21693°
Mean anomaly
87.3899°
Eccentric anomaly
87.80339°
Mean motion
3.33458 °/min
Orbital period
107.96 mins
BSTAR
0.000676
Loading maneuver chart data...
Computing Atmospheric mass density...

Documentation

Showing up to 5 results
|